Weather History for Barranquilla, Colombia

Change the Weather History Date:

Tuesday, May 6, 2014

  Actual Average Record
Temperature  
Mean Temperature 86 °F -  
Max Temperature 92 °F 92 °F 100 °F (2007)
Min Temperature 79 °F 77 °F 75 °F (2012)
Cooling Degree Days 20    
Growing Degree Days 36 (Base 50)    
Moisture  
Dew Point 78 °F    
Average Humidity 79    
Maximum Humidity 94    
Minimum Humidity 52    
Precipitation  
Precipitation 0.00 in 0.12 in - ()
Sea Level Pressure  
Sea Level Pressure 29.83 in    
Wind  
Wind Speed 9 mph ()    
Max Wind Speed 16 mph    
Max Gust Speed -    
Visibility 5.9 miles    
Events Fog    
Averages and records for this station are not official NWS values.
T = Trace of Precipitation, MM = Missing Value Source: Averaged Metar Reports

Daily Weather History Graph

Daily Weather History Graph

Search for Another Location

Airport:

Trip Planner

Search our weather history database for the weather conditions in past years. The results will help you decide how hot, cold, wet, or windy it might be!

Date:

Astronomy

May. 06, 2014 Rise Set
Actual Time 5:39 AM COT 6:12 PM COT
Civil Twilight 5:17 AM COT 6:34 PM COT
Nautical Twilight 4:51 AM COT 7:00 PM COT
Astronomical Twilight 4:25 AM COT 7:26 PM COT
Moon 11:40 AM COT (5/6) No Moon Set
Length of Visible Light 13h 17m
Length of Day
12h 33m
Waxing Crescent, 46% of the Moon is Illuminated
May 6
Waxing Crescent
May 6
First Quarter
May 14
Full
May 21
Last Quarter
May 28
New

Hourly Weather History & Observations

Time (COT) Temp. Heat Index Dew Point Humidity Pressure Visibility Wind Dir Wind Speed Gust Speed Precip Events Conditions
12:00 AM 80.6 °F 87.1 °F 77.0 °F 89% 29.82 in 6.2 mi NNE 11.5 mph - N/A   Mostly Cloudy
1:00 AM 80 °F - 77 °F 88% 29.82 in 6 mi NNE 8.9 mph - -   Haze
1:00 AM 80.6 °F 87.1 °F 77.0 °F 89% 29.81 in 6.2 mi NNE 9.2 mph - N/A   Mostly Cloudy
2:00 AM 78.8 °F - 77.0 °F 94% 29.80 in 6.2 mi NNE 9.2 mph - N/A   Partly Cloudy
3:00 AM 78.8 °F - 77.0 °F 94% 29.79 in 6.2 mi NNE 10.4 mph - N/A   Partly Cloudy
7:00 AM 81 °F - 78 °F 89% 29.85 in 4 mi ENE 6.7 mph - - Fog Light Fog
7:00 AM 80.6 °F 88.1 °F 78.8 °F 94% 29.84 in 4.3 mi ENE 5.8 mph - N/A Fog Fog
8:00 AM 84.2 °F 96.1 °F 78.8 °F 84% 29.86 in 6.2 mi ENE 11.5 mph - N/A   Scattered Clouds
9:00 AM 87.8 °F 102.5 °F 78.8 °F 75% 29.89 in 6.2 mi ENE 6.9 mph - N/A   Scattered Clouds
10:00 AM 87 °F - 80 °F 73% 29.90 in 6 mi ESE 4.6 mph - -   Haze
10:00 AM 87.8 °F 102.5 °F 78.8 °F 75% 29.89 in 6.2 mi ESE 9.2 mph - N/A   Scattered Clouds
11:00 AM 89.6 °F 104.7 °F 78.8 °F 70% 29.87 in 6.2 mi ENE 9.2 mph - N/A   Scattered Clouds
12:00 PM 91.4 °F 107.2 °F 78.8 °F 66% 29.84 in 6.2 mi SSE 11.5 mph - N/A   Scattered Clouds
1:00 PM 94 °F - 78 °F 52% 29.82 in 3 mi NE 11.2 mph - -   Partly Cloudy
1:00 PM 95.0 °F 112.2 °F 78.8 °F 59% 29.81 in 6.2 mi NE 10.4 mph - N/A   Scattered Clouds
2:00 PM 93.2 °F 110.2 °F 78.8 °F 63% 29.79 in 6.2 mi NNE 10.4 mph - N/A   Scattered Clouds
3:00 PM 89.6 °F 102.2 °F 77.0 °F 66% 29.77 in 6.2 mi NNE 16.1 mph - N/A   Scattered Clouds
4:00 PM 88 °F - 77 °F 62% 29.77 in 6 mi NNE 8.9 mph - -   Haze
4:00 PM 87.8 °F 99.7 °F 77.0 °F 70% 29.76 in 6.2 mi NNE 8.1 mph - N/A   Scattered Clouds
5:00 PM 86.0 °F 96.9 °F 77.0 °F 74% 29.77 in 6.2 mi NE 13.8 mph - N/A   Scattered Clouds
6:00 PM 82.4 °F 90.9 °F 77.0 °F 84% 29.79 in 6.2 mi NNE 13.8 mph - N/A   Scattered Clouds
7:00 PM 82 °F - 77 °F 81% 29.82 in 6 mi NE 6.7 mph - -   Haze
7:00 PM 82.4 °F 90.9 °F 77.0 °F 84% 29.81 in 6.2 mi NE 6.9 mph - N/A   Scattered Clouds
8:00 PM 80.6 °F 87.1 °F 77.0 °F 89% 29.82 in 6.2 mi NNE 6.9 mph - N/A   Scattered Clouds
9:00 PM 80.6 °F 87.1 °F 77.0 °F 89% 29.84 in 6.2 mi NNE 8.1 mph - N/A   Scattered Clouds
10:00 PM 81 °F - 77 °F 85% 29.86 in 6 mi NE 11.2 mph - -   Haze
10:00 PM 80.6 °F 87.1 °F 77.0 °F 89% 29.85 in 6.2 mi NE 11.5 mph - N/A   Scattered Clouds
11:00 PM 80.6 °F 87.1 °F 77.0 °F 89% 29.84 in 6.2 mi NNE 12.7 mph - N/A   Scattered Clouds